IZ4UFQ-10 Weather Reports


time (UTC)temp
F
wind
direction
speed
knots
gust
knots
rain 1hr
in
rain 24hr
in
rain mn
in
humidity
%
barometer
mb
20260906103750 85 13 0.0 0.0 0.00 0.00 0.00 62 1021.0
20260906103250 85 75 0.0 0.0 0.00 0.00 0.00 62 1021.0
20260906102749 85 29 0.0 0.0 0.00 0.00 0.00 62 1021.1
20260906102249 85 115 0.0 0.0 0.00 0.00 0.00 63 1021.0
20260906101749 86 45 0.0 0.0 0.00 0.00 0.00 62 1021.1
20260906101249 85 22 0.0 0.0 0.00 0.00 0.00 63 1021.0
20260906100748 85 22 0.0 0.0 0.00 0.00 0.00 63 1021.1
20260906100248 85 354 0.0 0.0 0.00 0.00 0.00 63 1021.1
20260906095748 84 33 0.0 0.0 0.00 0.00 0.00 63 1021.1
20260906095247 84 332 0.0 0.0 0.00 0.00 0.00 67 1021.1
20260906094747 83 43 0.0 0.0 0.00 0.00 0.00 68 1021.2
20260906094247 83 36 0.0 0.0 0.00 0.00 0.00 67 1021.2
20260906093747 84 32 0.0 0.0 0.00 0.00 0.00 67 1021.3
20260906093246 84 56 0.0 0.0 0.00 0.00 0.00 68 1021.2
20260906092746 83 80 0.0 0.0 0.00 0.00 0.00 70 1021.2
20260906092246 83 74 0.0 0.0 0.00 0.00 0.00 70 1021.2
20260906091745 83 77 0.0 0.0 0.00 0.00 0.00 71 1021.2
20260906091245 82 9 0.0 0.0 0.00 0.00 0.00 73 1021.3
20260906090745 82 90 0.0 0.0 0.00 0.00 0.00 73 1021.3
20260906090245 82 43 0.0 0.0 0.00 0.00 0.00 75 1021.2
20260906085744 81 39 0.0 0.0 0.00 0.00 0.00 75 1021.2
20260906085244 81 27 0.0 0.0 0.00 0.00 0.00 76 1021.2
20260906084744 81 16 0.0 0.0 0.00 0.00 0.00 75 1021.2
20260906084243 81 21 0.0 0.0 0.00 0.00 0.00 74 1021.2
20260906083743 81 8 0.0 0.0 0.00 0.00 0.00 74 1021.1
20260906083243 81 18 0.0 0.0 0.00 0.00 0.00 73 1021.1
20260906082743 81 22 0.0 0.0 0.00 0.00 0.00 73 1021.1
20260906082242 80 21 0.0 0.0 0.00 0.00 0.00 72 1021.2
20260906081742 80 25 0.0 0.0 0.00 0.00 0.00 72 1021.2
20260906081242 80 25 0.0 0.0 0.00 0.00 0.00 71 1021.2
20260906080741 80 26 0.0 0.0 0.00 0.00 0.00 71 1021.1
20260906080241 80 354 0.0 0.0 0.00 0.00 0.00 72 1021.1
20260906075741 80 354 0.0 0.0 0.00 0.00 0.00 71 1021.0
20260906075241 80 264 0.0 0.0 0.00 0.00 0.00 71 1021.0
20260906074740 80 256 0.0 0.0 0.00 0.00 0.00 72 1020.9
20260906074240 79 256 0.0 0.0 0.00 0.00 0.00 72 1020.9
20260906073740 79 256 0.0 0.0 0.00 0.00 0.00 72 1020.9
20260906073239 79 255 0.0 0.0 0.00 0.00 0.00 72 1020.9
20260906072739 78 251 0.0 0.0 0.00 0.00 0.00 72 1020.9
20260906072239 78 250 0.0 0.0 0.00 0.00 0.00 72 1020.8
20260906071739 78 250 0.0 0.0 0.00 0.00 0.00 72 1020.8
20260906071238 78 249 0.0 0.0 0.00 0.00 0.00 73 1020.8
20260906070738 77 249 0.0 0.0 0.00 0.00 0.00 73 1020.7
20260906070238 77 249 0.0 0.0 0.00 0.00 0.00 74 1020.7
20260906065737 77 207 0.0 0.0 0.00 0.00 0.00 72 1020.7
20260906065237 77 191 0.0 0.0 0.00 0.00 0.00 72 1020.7
20260906064737 77 180 0.0 0.0 0.00 0.00 0.00 71 1020.6
20260906064237 77 180 0.0 0.0 0.00 0.00 0.00 71 1020.6
20260906063736 76 180 0.0 0.0 0.00 0.00 0.00 71 1020.5
20260906063236 76 180 0.0 0.0 0.00 0.00 0.00 71 1020.5
20260906062736 76 180 0.0 0.0 0.00 0.00 0.00 72 1020.4
20260906062235 75 180 0.0 0.0 0.00 0.00 0.00 71 1020.4
20260906061735 75 180 0.0 0.0 0.00 0.00 0.00 71 1020.3
20260906061235 75 180 0.0 0.0 0.00 0.00 0.00 71 1020.3
20260906060735 75 180 0.0 0.0 0.00 0.00 0.00 71 1020.3
20260906060234 74 180 0.0 0.0 0.00 0.00 0.00 72 1020.3
20260906055734 74 180 0.0 0.0 0.00 0.00 0.00 72 1020.1
20260906055234 74 180 0.0 0.0 0.00 0.00 0.00 73 1020.2
20260906054733 74 180 0.0 0.0 0.00 0.00 0.00 73 1020.1
20260906054233 74 180 0.0 0.0 0.00 0.00 0.00 72 1020.1
20260906053733 74 180 0.0 0.0 0.00 0.00 0.00 72 1020.0
20260906053232 74 180 0.0 0.0 0.00 0.00 0.00 72 1020.0
20260906052732 74 180 0.0 0.0 0.00 0.00 0.00 72 1020.0
20260906052232 74 180 0.0 0.0 0.00 0.00 0.00 73 1019.9
20260906051732 74 180 0.0 0.0 0.00 0.00 0.00 73 1019.8
20260906051231 74 180 0.0 0.0 0.00 0.00 0.00 72 1019.9
20260906050731 73 180 0.0 0.0 0.00 0.00 0.00 72 1019.9
20260906050231 73 180 0.0 0.0 0.00 0.00 0.00 73 1019.9
20260906045730 73 180 0.0 0.0 0.00 0.00 0.00 73 1019.8
20260906045230 73 180 0.0 0.0 0.00 0.00 0.00 73 1019.8
20260906044730 73 180 0.0 0.0 0.00 0.00 0.00 73 1019.7
20260906044230 73 180 0.0 0.0 0.00 0.00 0.00 73 1019.7
20260906043729 72 180 0.0 0.0 0.00 0.00 0.00 73 1019.6
20260906043229 72 180 0.0 0.0 0.00 0.00 0.00 74 1019.6
20260906042729 72 180 0.0 0.0 0.00 0.00 0.00 74 1019.5
20260906042228 72 180 0.0 0.0 0.00 0.00 0.00 74 1019.5
20260906041809 72 180 0.0 0.0 0.00 0.00 0.00 73 1019.5
20260906041728 72 180 0.0 0.0 0.00 0.00 0.00 73 1019.5
20260906041228 72 180 0.0 0.0 0.00 0.00 0.00 73 1019.4
20260906040728 72 180 0.0 0.0 0.00 0.00 0.00 73 1019.4
20260906040227 72 180 0.0 0.0 0.00 0.00 0.00 73 1019.3
20260906035727 72 180 0.0 0.0 0.00 0.00 0.00 73 1019.3
20260906035227 72 179 0.0 0.0 0.00 0.00 0.00 73 1019.3
20260906034726 72 180 0.0 0.0 0.00 0.00 0.00 73 1019.3
20260906034226 72 180 0.0 0.0 0.00 0.00 0.00 73 1019.2
20260906033726 72 180 0.0 0.0 0.00 0.00 0.00 73 1019.2
20260906033226 72 180 0.0 0.0 0.00 0.00 0.00 73 1019.0
20260906032725 72 180 0.0 0.0 0.00 0.00 0.00 74 1019.0
20260906032225 72 180 0.0 0.0 0.00 0.00 0.00 74 1019.0
20260906031725 72 180 0.0 0.0 0.00 0.00 0.00 74 1018.9
20260906031224 72 180 0.0 0.0 0.00 0.00 0.00 73 1018.9
20260906030724 72 179 0.0 0.0 0.00 0.00 0.00 73 1018.9
20260906030224 72 180 0.0 0.0 0.00 0.00 0.00 73 1019.0
20260906025724 73 180 0.0 0.0 0.00 0.00 0.00 72 1019.0
20260906025223 73 179 0.0 0.0 0.00 0.00 0.00 72 1018.9
20260906024723 73 180 0.0 0.0 0.00 0.00 0.00 71 1019.0
20260906024223 73 180 0.0 0.0 0.00 0.00 0.00 71 1019.0
20260906023722 73 180 0.0 0.0 0.00 0.00 0.00 71 1018.8
20260906023222 74 179 0.0 0.0 0.00 0.00 0.00 70 1018.8
20260906022722 74 180 0.0 0.0 0.00 0.00 0.00 70 1018.7
20260906022222 74 179 0.0 0.0 0.00 0.00 0.00 70 1018.6
20260906021721 74 180 0.0 0.0 0.00 0.00 0.00 70 1018.5
20260906021221 74 179 0.0 0.0 0.00 0.00 0.00 70 1018.5
20260906020721 74 179 0.0 0.0 0.00 0.00 0.00 70 1018.4
20260906020220 74 179 0.0 0.0 0.00 0.00 0.00 69 1018.4
20260906015720 74 179 0.0 0.0 0.00 0.00 0.00 69 1018.2
20260906015220 74 179 0.0 0.0 0.00 0.00 0.00 69 1018.2
20260906014719 75 179 0.0 0.0 0.00 0.00 0.00 69 1018.2
20260906014219 75 179 0.0 0.0 0.00 0.00 0.00 69 1018.2
20260906013719 75 179 0.0 0.0 0.00 0.00 0.00 69 1018.2
20260906013219 75 179 0.0 0.0 0.00 0.00 0.00 69 1018.2
20260906012718 75 179 0.0 0.0 0.00 0.00 0.00 69 1018.2
20260906012218 75 179 0.0 0.0 0.00 0.00 0.00 69 1018.1
20260906011718 75 179 0.0 0.0 0.00 0.00 0.00 68 1018.1
20260906011218 75 179 0.0 0.0 0.00 0.00 0.00 68 1018.1
20260906010717 75 179 0.0 0.0 0.00 0.00 0.00 68 1018.1
20260906010217 75 179 0.0 0.0 0.00 0.00 0.00 68 1018.1
20260906005717 75 179 0.0 0.0 0.00 0.00 0.00 68 1018.0
20260906005216 75 179 0.0 0.0 0.00 0.00 0.00 69 1018.0
20260906004716 75 179 0.0 0.0 0.00 0.00 0.00 68 1018.0
20260906004216 75 179 0.0 0.0 0.00 0.00 0.00 68 1018.0
20260906003715 75 179 0.0 0.0 0.00 0.00 0.00 68 1018.0
20260906003215 75 179 0.0 0.0 0.00 0.00 0.00 67 1018.0
20260906002715 75 179 0.0 0.0 0.00 0.00 0.00 67 1018.0
20260906002215 75 179 0.0 0.0 0.00 0.00 0.00 66 1018.0
20260906001714 75 179 0.0 0.0 0.00 0.00 0.00 66 1018.0
20260906001214 75 179 0.0 0.0 0.00 0.00 0.00 66 1018.0
20260906000714 76 179 0.0 0.0 0.00 0.00 0.00 66 1018.0
20260906000213 76 179 0.0 0.0 0.00 0.00 0.00 66 1018.0
20260905235713 76 179 0.0 0.0 0.00 0.00 0.00 65 1018.0
20260905235213 76 179 0.0 0.0 0.00 0.00 0.00 65 1018.0
20260905234713 76 179 0.0 0.0 0.00 0.00 0.00 65 1018.0
20260905234212 76 179 0.0 0.0 0.00 0.00 0.00 64 1017.8
20260905233712 76 179 0.0 0.0 0.00 0.00 0.00 64 1017.8
20260905233212 76 179 0.0 0.0 0.00 0.00 0.00 64 1017.8
20260905232711 76 179 0.0 0.0 0.00 0.00 0.00 63 1017.8
20260905232211 76 179 0.0 0.0 0.00 0.00 0.00 62 1017.7
20260905231711 76 179 0.0 0.0 0.00 0.00 0.00 62 1017.6
20260905231211 77 179 0.0 0.0 0.00 0.00 0.00 61 1017.7
20260905230710 77 179 0.0 0.0 0.00 0.00 0.00 60 1017.6
20260905230210 77 179 0.0 0.0 0.00 0.00 0.00 60 1017.6
20260905225710 77 179 0.0 0.0 0.00 0.00 0.00 59 1017.6
20260905225209 78 179 0.0 0.0 0.00 0.00 0.00 58 1017.5
20260905224709 78 179 0.0 0.0 0.00 0.00 0.00 58 1017.5
20260905224209 78 179 0.0 0.0 0.00 0.00 0.00 58 1017.5
20260905223709 78 179 0.0 0.0 0.00 0.00 0.00 57 1017.5
20260905223208 79 179 0.0 0.0 0.00 0.00 0.00 56 1017.4
20260905222708 79 179 0.0 0.0 0.00 0.00 0.00 56 1017.3
20260905222208 79 179 0.0 0.0 0.00 0.00 0.00 55 1017.4
20260905221707 80 179 0.0 0.0 0.00 0.00 0.00 54 1017.3
20260905221207 80 179 0.0 0.0 0.00 0.00 0.00 54 1017.3
20260905220707 80 179 0.0 0.0 0.00 0.00 0.00 53 1017.1
20260905220206 81 179 0.0 0.0 0.00 0.00 0.00 52 1017.2
20260905215706 81 179 0.0 0.0 0.00 0.00 0.00 52 1017.1
20260905215206 81 179 0.0 0.0 0.00 0.00 0.00 51 1017.0
20260905214706 81 180 0.0 0.0 0.00 0.00 0.00 51 1017.0
20260905214205 81 181 0.0 0.0 0.00 0.00 0.00 51 1017.0
20260905213705 82 195 0.0 0.0 0.00 0.00 0.00 51 1016.9
20260905213205 82 195 0.0 0.0 0.00 0.00 0.00 50 1016.8
20260905212704 82 195 0.0 0.0 0.00 0.00 0.00 50 1016.7
20260905212204 82 195 0.0 0.0 0.00 0.00 0.00 50 1016.7
20260905211704 82 197 0.0 0.0 0.00 0.00 0.00 51 1016.7
20260905211204 82 204 0.0 0.0 0.00 0.00 0.00 50 1016.7
20260905210703 82 204 0.0 0.0 0.00 0.00 0.00 50 1016.6
20260905210203 83 204 0.0 0.0 0.00 0.00 0.00 50 1016.5
20260905205703 83 204 0.0 0.0 0.00 0.00 0.00 50 1016.5
20260905205202 82 191 0.0 0.0 0.00 0.00 0.00 49 1016.5
20260905204734 83 191 0.0 0.0 0.00 0.00 0.00 49 1016.6
20260905204702 83 191 0.0 0.0 0.00 0.00 0.00 49 1016.6
20260905204202 83 190 0.0 0.0 0.00 0.00 0.00 49 1016.5
20260905203702 83 191 0.0 0.0 0.00 0.00 0.00 49 1016.5
20260905203201 83 192 0.0 0.0 0.00 0.00 0.00 49 1016.4
20260905202701 83 192 0.0 0.0 0.00 0.00 0.00 49 1016.4
20260905202201 83 192 0.0 0.0 0.00 0.00 0.00 49 1016.4
20260905201700 83 184 0.0 0.0 0.00 0.00 0.00 50 1016.4
20260905201200 83 184 0.0 0.0 0.00 0.00 0.00 50 1016.4
20260905200700 83 184 0.0 0.0 0.00 0.00 0.00 50 1016.4
20260905200200 83 175 0.0 0.0 0.00 0.00 0.00 51 1016.3
20260905195659 83 258 0.0 0.0 0.00 0.00 0.00 52 1016.3
20260905195159 83 265 0.0 0.0 0.00 0.00 0.00 52 1016.3
20260905194659 83 265 0.0 0.0 0.00 0.00 0.00 52 1016.3
20260905194158 83 265 0.0 0.0 0.00 0.00 0.00 52 1016.2
20260905193658 84 265 0.0 0.0 0.00 0.00 0.00 52 1016.3
20260905193158 84 265 0.0 0.0 0.00 0.00 0.00 52 1016.2
20260905192658 84 265 0.0 0.0 0.00 0.00 0.00 49 1016.1
20260905192157 84 265 0.0 0.0 0.00 0.00 0.00 49 1016.1
20260905191657 85 266 0.0 0.0 0.00 0.00 0.00 51 1016.0
20260905191157 85 266 0.0 0.0 0.00 0.00 0.00 50 1016.0
20260905190656 85 267 0.0 0.0 0.00 0.00 0.00 50 1015.9
20260905190156 86 267 0.0 0.0 0.00 0.00 0.00 50 1015.9
20260905185656 86 267 0.0 0.0 0.00 0.00 0.00 50 1015.8
20260905185155 86 266 0.0 0.0 0.00 0.00 0.00 49 1015.8
20260905184655 86 267 0.0 0.0 0.00 0.00 0.00 48 1015.7
20260905184155 86 267 0.0 0.0 0.00 0.00 0.00 50 1015.7
20260905183655 87 266 0.0 0.0 0.00 0.00 0.00 49 1015.6
20260905183238 87 267 0.0 0.0 0.00 0.00 0.00 49 1015.5
20260905183154 87 267 0.0 0.0 0.00 0.00 0.00 49 1015.5
20260905182654 87 267 0.0 0.0 0.00 0.00 0.00 49 1015.5
20260905182154 88 267 0.0 0.0 0.00 0.00 0.00 49 1015.4
20260905181653 88 267 0.0 0.0 0.00 0.00 0.00 48 1015.3
20260905181153 88 267 0.0 0.0 0.00 0.00 0.00 48 1015.2
20260905180653 88 272 0.0 0.0 0.00 0.00 0.00 48 1015.2
20260905180153 88 272 0.0 0.0 0.00 0.00 0.00 48 1015.1
20260905175652 89 275 0.0 0.0 0.00 0.00 0.00 48 1015.2
20260905175152 89 276 0.0 0.0 0.00 0.00 0.00 47 1015.2
20260905174652 90 276 0.0 0.0 0.00 0.00 0.00 47 1015.1
20260905174152 90 275 0.0 0.0 0.00 0.00 0.00 46 1015.1
20260905173651 90 276 0.0 0.0 0.00 0.00 0.00 45 1015.0
20260905173151 91 278 0.0 0.0 0.00 0.00 0.00 45 1014.9
20260905172651 91 278 0.0 0.0 0.00 0.00 0.00 44 1014.9
20260905172150 92 297 0.0 0.0 0.00 0.00 0.00 43 1014.9
20260905171650 93 305 0.0 0.0 0.00 0.00 0.00 42 1014.9
20260905171150 93 314 0.0 0.0 0.00 0.00 0.00 41 1014.8
20260905170649 94 328 0.0 0.0 0.00 0.00 0.00 39 1014.8
20260905170149 94 330 0.0 0.0 0.00 0.00 0.00 38 1014.7
20260905165649 94 331 0.0 0.0 0.00 0.00 0.00 34 1014.7
20260905165149 94 334 0.0 0.0 0.00 0.00 0.00 33 1014.6
20260905164648 94 334 0.0 0.0 0.00 0.00 0.00 33 1014.6
20260905164148 94 333 0.0 0.0 0.00 0.00 0.00 33 1014.5
20260905163648 94 333 0.0 0.0 0.00 0.00 0.00 32 1014.5
20260905163147 95 325 0.0 0.0 0.00 0.00 0.00 32 1014.5
20260905162647 95 331 0.0 0.0 0.00 0.00 0.00 32 1014.4
20260905162147 95 322 0.0 0.0 0.00 0.00 0.00 32 1014.4
20260905161647 95 326 0.0 0.0 0.00 0.00 0.00 32 1014.4
20260905161146 95 324 0.0 0.0 0.00 0.00 0.00 32 1014.4
20260905160646 95 334 0.0 0.0 0.00 0.00 0.00 32 1014.3
20260905160146 96 336 0.0 0.0 0.00 0.00 0.00 31 1014.4
20260905155645 95 317 0.0 0.0 0.00 0.00 0.00 32 1014.3
20260905155145 95 316 0.0 0.0 0.00 0.00 0.00 32 1014.3
20260905154645 95 354 0.0 0.0 0.00 0.00 0.00 32 1014.3
20260905154145 95 359 0.0 0.0 0.00 0.00 0.00 32 1014.3
20260905153644 96 4 0.0 0.0 0.00 0.00 0.00 31 1014.3
20260905153144 97 354 0.0 0.0 0.00 0.00 0.00 31 1014.2
20260905152644 97 283 0.0 0.0 0.00 0.00 0.00 31 1014.2
20260905152143 97 266 0.0 0.0 0.00 0.00 0.00 30 1014.2
20260905151643 96 251 0.0 0.0 0.00 0.00 0.00 31 1014.2
20260905151143 96 251 0.0 0.0 0.00 0.00 0.00 31 1014.3
20260905150643 96 257 0.0 0.0 0.00 0.00 0.00 31 1014.2
20260905150142 96 310 0.0 0.0 0.00 0.00 0.00 31 1014.3
20260905145642 96 341 0.0 0.0 0.00 0.00 0.00 31 1014.3
20260905145142 95 335 0.0 0.0 0.00 0.00 0.00 32 1014.3
20260905144641 95 16 0.0 0.0 0.00 0.00 0.00 31 1014.3
20260905144141 95 4 0.0 0.0 0.00 0.00 0.00 31 1014.4
20260905143641 95 299 0.0 0.0 0.00 0.00 0.00 31 1014.4
20260905143141 95 38 0.0 0.0 0.00 0.00 0.00 31 1014.5
20260905142640 95 316 0.0 0.0 0.00 0.00 0.00 31 1014.5
20260905142140 95 331 0.0 0.0 0.00 0.00 0.00 31 1014.5
20260905141640 95 44 0.0 0.0 0.00 0.00 0.00 31 1014.5
20260905141139 95 354 0.0 0.0 0.00 0.00 0.00 31 1014.6
20260905140639 96 146 0.0 0.0 0.00 0.00 0.00 30 1014.6
20260905140139 96 160 0.0 0.0 0.00 0.00 0.00 30 1014.6
20260905135639 96 162 0.0 0.0 0.00 0.00 0.00 30 1014.6
20260905135138 96 145 0.0 0.0 0.00 0.00 0.00 31 1014.7
20260905134638 95 145 0.0 0.0 0.00 0.00 0.00 31 1014.8
20260905134138 94 145 0.0 0.0 0.00 0.00 0.00 31 1014.8
20260905133637 94 147 0.0 0.0 0.00 0.00 0.00 31 1014.9
20260905133137 94 28 0.0 0.0 0.00 0.00 0.00 31 1015.0
20260905132637 93 28 0.0 0.0 0.00 0.00 0.00 32 1015.1
20260905132136 93 28 0.0 0.0 0.00 0.00 0.00 31 1015.1
20260905131636 94 343 0.0 0.0 0.00 0.00 0.00 31 1015.1
20260905131136 93 349 0.0 0.0 0.00 0.00 0.00 31 1015.2
20260905130636 94 346 0.0 0.0 0.00 0.00 0.00 31 1015.2
20260905130135 94 309 0.0 0.0 0.00 0.00 0.00 31 1015.4
20260905125635 93 14 0.0 0.0 0.00 0.00 0.00 31 1015.3
20260905125135 93 14 0.0 0.0 0.00 0.00 0.00 31 1015.4
20260905124634 93 18 0.0 0.0 0.00 0.00 0.00 31 1015.5
20260905124134 93 359 0.0 0.0 0.00 0.00 0.00 31 1015.5
20260905123634 93 46 0.0 0.0 0.00 0.00 0.00 32 1015.5
20260905123134 92 4 0.0 0.0 0.00 0.00 0.00 32 1015.6
20260905122633 92 10 0.0 0.0 0.00 0.00 0.00 32 1015.6
20260905122133 92 26 0.0 0.0 0.00 0.00 0.00 32 1015.6
20260905121633 92 16 0.0 0.0 0.00 0.00 0.00 32 1015.8
20260905121132 92 8 0.0 0.0 0.00 0.00 0.00 31 1015.8
20260905120632 92 14 0.0 0.0 0.00 0.00 0.00 31 1015.9
20260905120132 92 306 0.0 0.0 0.00 0.00 0.00 31 1015.9
20260905115632 91 25 0.0 0.0 0.00 0.00 0.00 32 1015.9
20260905115131 91 359 0.0 0.0 0.00 0.00 0.00 32 1016.0
20260905114631 92 4 0.0 0.0 0.00 0.00 0.00 31 1015.9
20260905114131 92 9 0.0 0.0 0.00 0.00 0.00 32 1015.9
20260905113630 92 340 0.0 0.0 0.00 0.00 0.00 31 1015.9
20260905113130 92 310 0.0 0.0 0.00 0.00 0.00 30 1015.8
20260905112630 92 359 0.0 0.0 0.00 0.00 0.00 30 1015.8
20260905112130 92 12 0.0 0.0 0.00 0.00 0.00 29 1015.8
20260905111629 92 285 0.0 0.0 0.00 0.00 0.00 30 1015.9
20260905111129 92 359 0.0 0.0 0.00 0.00 0.00 30 1016.0
20260905110629 91 300 0.0 0.0 0.00 0.00 0.00 30 1016.0
20260905110128 91 334 0.0 0.0 0.00 0.00 0.00 31 1016.1
20260905105628 90 359 0.0 0.0 0.00 0.00 0.00 33 1016.0
20260905105128 90 12 0.0 0.0 0.00 0.00 0.00 33 1016.0
20260905104628 90 330 0.0 0.0 0.00 0.00 0.00 33 1016.1
20260905104127 90 330 0.0 0.0 0.00 0.00 0.00 33 1016.2